Theta_e
354 360 349 353 352 357 354 348 355 352 347 353 353 352 346 351 347 350 352 360 360 359 357 357 355 356 355 354 354 353 354 348 349 350 352 352 351 351 351 350 351 351 351
364 363 354 353 352 357 355 356 357 354 353 347 350 349 352 352 353 348 349 353 360 360 358 357 357 355 354 354 353 350 353 350 351 351 350 350 352 352 351 350 350 350 350
365 359 352 353 356 362 361 358 361 354 349 351 352 348 352 354 349 350 349 349 352 358 357 356 356 354 351 350 351 351 349 348 348 348 349 349 349 351 351 351 350 350 350
369 354 355 354 357 354 359 347 357 352 346 347 346 343 343 351 353 352 353 352 351 350 356 357 356 355 352 352 352 352 353 354 353 352 352 353 353 353 352 351 350 349 349
368 361 352 358 356 362 362 356 344 358 349 349 346 348 352 347 346 348 352 355 355 352 352 358 358 358 357 358 357 356 355 356 356 355 354 354 354 354 352 351 349 348 348
368 357 358 364 363 348 352 358 344 350 347 346 343 345 341 348 348 349 348 352 353 355 355 352 355 355 358 357 358 357 356 356 356 357 357 356 355 354 353 351 349 348 345
365 359 361 363 363 351 351 360 359 355 346 352 341 344 348 344 347 349 348 345 346 349 352 357 353 353 352 359 359 358 355 355 355 355 355 356 354 353 353 351 350 349 342
368 363 359 363 352 362 362 357 347 347 343 346 345 345 333 339 347 341 346 345 345 345 347 349 351 351 354 352 353 358 358 356 354 353 352 353 351 349 349 350 350 347 342
369 365 365 363 366 355 356 360 360 343 343 350 348 346 337 332 342 342 342 347 348 348 351 351 350 352 350 354 357 356 357 356 354 352 352 350 350 349 349 349 348 344 342
368 368 367 369 368 361 357 364 362 351 344 346 354 353 348 348 339 333 342 348 348 348 349 353 349 351 352 351 358 355 355 354 354 353 353 350 350 349 348 348 346 343 343
371 366 371 369 365 364 365 364 362 364 360 353 348 347 346 348 350 337 336 342 347 348 352 352 351 351 353 351 351 351 353 351 352 353 354 353 350 346 345 343 342 343 343
364 371 368 367 368 367 364 364 368 366 365 363 355 350 342 343 341 343 339 341 338 346 350 352 348 348 353 352 355 355 353 349 349 350 351 353 352 349 345 343 342 342 342
356 363 370 366 366 367 368 367 369 366 367 363 364 358 355 349 341 350 342 340 339 346 344 346 351 352 351 355 353 352 351 347 345 345 345 348 350 349 348 348 348 346 345
358 363 366 366 368 368 367 367 364 365 364 364 363 365 360 355 352 352 348 345 340 343 347 342 352 352 353 354 357 354 349 344 342 341 341 342 344 345 345 346 347 347 348
362 364 366 367 368 366 366 367 361 363 361 364 365 365 364 357 355 352 352 350 345 337 339 349 350 357 356 355 358 352 352 347 341 339 338 338 339 340 341 342 343 343 345
364 364 366 365 365 369 368 366 362 363 363 360 361 363 363 357 356 357 354 354 351 347 339 346 349 355 355 350 357 356 355 351 343 340 337 336 336 338 338 338 339 339 340
373 368 371 367 365 364 369 368 364 362 361 361 364 364 362 362 361 360 358 355 352 352 344 346 352 354 360 360 356 358 360 357 355 339 338 337 335 335 336 336 336 336 336
365 374 367 370 365 364 365 365 363 358 361 360 362 363 363 361 364 363 361 360 361 363 356 349 354 353 353 356 360 362 360 356 354 350 338 336 334 334 333 333 333 333 332
364 363 369 364 366 363 362 363 364 363 362 363 363 364 363 365 364 362 362 357 355 357 356 352 349 356 357 360 357 361 362 359 357 351 343 338 335 333 332 330 329 328 326
362 363 363 365 365 364 362 361 365 364 363 362 365 363 365 364 364 365 363 362 362 361 359 356 352 351 353 355 357 354 353 358 356 355 352 346 341 338 334 330 329 328 324
362 364 363 364 365 364 361 360 360 362 363 363 363 363 364 362 354 357 362 364 363 360 358 356 353 352 352 353 351 353 351 355 358 358 356 358 359 361 359 339 337 335 328
362 363 364 363 363 363 345 340 354 357 363 361 360 361 365 353 351 342 340 342 351 359 357 357 355 352 353 355 357 355 353 350 348 359 361 359 362 360 363 363 347 334 329
361 362 363 364 364 364 338 335 340 356 357 358 362 361 361 359 353 362 345 339 340 338 341 355 353 352 351 353 355 356 356 355 354 360 358 354 361 359 363 362 343 338 332
360 362 363 364 365 365 339 330 335 353 356 359 360 359 361 360 360 362 362 360 359 359 356 351 351 354 357 360 361 360 359 359 358 358 361 353 359 357 362 362 345 337 335
361 361 362 364 364 365 335 331 333 351 352 355 356 358 361 362 347 338 354 354 355 358 347 336 341 340 340 338 345 357 352 346 346 353 361 356 357 357 357 355 357 341 332
360 362 362 364 355 364 338 328 333 355 352 353 357 359 339 348 335 328 353 358 355 356 358 359 359 353 338 344 330 340 348 348 352 352 360 354 355 353 346 353 354 355 345
Wind_Speed
5 3 4 6 6 1 4 3 8 8 6 1 8 5 6 9 12 7 5 10 10 9 9 9 9 8 7 6 5 4 4 3 2 1 4 4 5 6 6 7 7 8 8
3 3 1 4 4 2 3 3 2 6 3 6 3 3 4 7 7 10 7 6 10 9 9 9 8 7 6 6 5 3 2 2 1 0 2 3 4 4 6 5 6 6 6
2 6 1 2 2 1 2 3 4 5 4 6 4 4 1 7 8 9 6 6 7 8 8 10 9 7 6 5 4 4 3 3 3 3 3 3 4 4 4 4 5 5 6
4 6 2 2 4 4 2 2 4 3 3 5 6 4 2 5 7 7 6 6 6 7 7 9 9 9 8 7 6 6 6 5 4 3 4 5 5 6 5 4 4 4 4
3 6 3 4 3 4 2 3 1 1 2 4 4 4 4 8 2 6 9 7 8 7 6 12 12 11 11 10 9 7 5 5 4 5 6 6 6 6 5 5 4 3 1
4 7 4 5 5 2 3 1 4 1 4 3 5 6 2 5 5 6 5 9 8 9 6 8 7 7 11 11 9 7 6 5 5 6 6 5 5 5 4 4 3 3 3
8 8 4 4 5 3 4 2 4 3 3 2 1 2 3 4 4 5 5 5 5 8 11 8 7 5 6 11 9 9 8 6 5 4 4 4 4 4 4 5 4 6 6
7 9 5 3 3 3 4 4 4 1 2 3 2 2 1 4 1 2 3 3 5 4 5 5 5 7 6 6 8 11 8 7 6 5 4 4 3 3 3 5 5 6 6
5 3 7 2 2 3 1 3 4 5 2 1 4 2 1 1 2 2 2 2 3 2 5 6 6 7 4 6 9 9 9 8 7 7 5 5 5 5 6 7 8 8 8
6 5 7 5 2 2 3 3 3 4 4 1 3 4 4 3 1 1 3 4 4 4 3 3 5 6 7 4 7 12 13 11 9 8 8 8 7 8 9 11 10 11 11
5 7 6 6 5 4 4 6 3 2 1 3 2 3 2 3 5 2 2 2 3 4 5 4 5 5 7 6 6 9 15 13 12 11 10 10 12 12 13 14 14 13 14
5 5 8 5 3 3 4 3 2 3 3 3 2 4 3 3 3 2 1 3 6 4 4 5 4 3 5 5 6 11 15 15 14 13 13 13 14 15 16 17 18 18 18
8 8 7 8 4 5 4 3 3 4 2 3 3 4 3 3 2 1 3 2 1 2 2 4 5 5 4 5 6 13 16 15 15 14 14 15 16 16 17 19 19 19 20
7 11 8 10 8 6 5 6 3 4 4 3 5 2 3 5 2 1 1 3 4 2 2 4 2 5 5 4 5 13 9 15 15 16 16 17 17 17 18 18 19 19 20
1 12 11 8 9 10 7 6 5 5 4 3 5 4 2 5 5 2 2 1 1 3 3 2 2 3 4 4 6 6 7 14 18 18 17 17 18 19 19 20 19 20 19
7 9 12 11 8 6 8 9 7 8 7 6 5 7 5 4 5 2 1 2 2 2 3 1 3 2 4 3 6 6 5 9 16 17 18 20 21 22 23 23 24 24 23
5 6 5 6 9 8 6 6 7 4 10 7 6 5 7 7 3 3 2 3 3 3 3 4 2 4 3 2 5 6 6 5 6 17 20 21 22 23 24 25 26 25 26
9 5 7 6 7 7 8 7 9 8 8 7 7 6 7 6 6 5 3 5 3 2 1 4 2 4 5 7 7 7 7 9 7 10 15 19 21 23 24 25 25 24 25
10 11 8 9 8 9 8 9 9 9 8 9 9 8 7 6 5 5 5 5 4 4 4 3 5 5 5 5 6 6 6 8 7 12 18 19 20 22 23 24 24 23 22
14 13 12 11 11 10 10 10 10 10 9 9 7 8 7 7 7 6 6 6 6 5 5 4 5 5 6 7 4 3 4 2 5 7 9 11 7 17 23 21 19 20 19
14 14 13 13 13 12 11 11 10 10 11 10 9 9 8 9 10 9 7 7 7 7 6 7 7 5 3 3 4 4 4 4 6 6 10 7 8 8 7 12 16 18 21
16 15 15 15 14 11 14 15 14 11 10 11 11 10 8 9 14 13 12 11 8 7 8 6 7 8 6 6 4 6 9 11 11 5 5 9 9 10 8 8 13 10 11
16 16 16 15 15 15 14 17 18 12 11 10 10 10 10 10 11 11 15 17 15 14 15 12 12 11 11 10 8 9 8 8 9 10 8 12 8 9 7 7 7 10 10
17 16 16 16 15 14 16 14 16 14 12 11 11 12 11 11 9 7 11 11 11 12 12 10 13 14 13 10 10 10 10 10 8 10 8 11 6 8 6 5 12 7 5
15 16 16 17 17 15 17 17 12 9 12 12 11 10 9 11 14 14 10 10 9 8 9 14 14 14 17 16 14 7 9 9 10 10 7 6 5 6 8 9 3 10 9
16 14 16 16 17 16 16 18 16 11 12 10 10 12 14 16 13 11 10 11 11 11 10 10 8 9 9 9 14 10 7 8 8 6 2 1 3 3 5 1 3 3 7
Wind_Direction
206 151 197 99 285 358 197 184 173 180 244 70 4 348 55 69 118 116 116 124 122 133 132 133 138 139 139 133 121 115 125 94 101 42 39 31 21 15 16 17 18 20 18
152 147 99 88 215 118 321 347 89 137 141 109 266 46 45 83 81 122 132 142 145 148 144 141 155 150 151 148 138 135 163 159 193 59 25 359 1 348 2 6 8 6 5
93 65 202 87 44 338 155 1 286 125 129 164 161 73 53 92 101 110 136 152 158 168 165 159 160 171 173 174 178 185 193 233 258 283 309 324 328 330 334 337 350 353 1
110 98 357 44 188 118 155 207 321 47 194 124 108 139 217 115 134 131 166 170 159 168 183 189 179 182 191 196 202 222 230 235 253 276 286 289 297 304 312 318 323 342 6
78 66 161 233 161 48 282 250 43 10 37 70 165 161 208 101 105 167 184 176 179 158 182 189 196 196 204 212 212 221 235 248 265 275 281 290 290 294 301 306 315 328 69
156 49 288 204 107 143 1 102 38 34 68 23 40 108 278 154 171 228 173 168 192 182 170 179 192 206 215 219 215 212 223 237 244 258 265 278 287 288 280 271 251 212 172
127 164 243 223 113 114 211 281 166 76 107 94 310 201 182 183 188 180 213 153 171 162 187 193 183 200 198 223 213 210 212 225 230 243 250 260 270 263 247 244 217 194 181
145 174 191 308 108 159 191 94 48 336 353 98 70 98 328 324 253 252 81 180 153 169 162 159 150 140 186 176 201 206 207 212 225 235 234 228 227 221 216 203 206 203 195
178 202 144 136 184 75 51 125 162 145 235 285 137 175 15 192 278 129 121 113 118 297 131 166 180 159 177 144 169 192 194 201 211 218 216 212 208 208 211 209 206 209 211
181 188 149 154 149 154 155 236 216 161 165 236 179 194 194 203 231 78 220 161 170 199 187 222 175 169 166 197 171 177 184 192 202 214 213 213 214 216 215 219 210 212 218
182 181 159 149 172 184 189 234 128 130 214 214 217 202 195 232 223 147 217 184 217 208 168 226 206 154 173 206 168 169 176 188 196 206 213 214 220 221 223 225 221 222 223
187 220 156 154 183 238 167 181 212 239 269 349 319 256 169 222 220 243 171 196 181 227 170 207 169 190 191 191 202 171 181 189 197 205 213 219 223 224 228 230 229 229 230
184 187 159 156 192 217 195 156 231 288 239 281 326 319 339 265 212 0 31 311 120 151 188 215 191 185 207 186 199 170 188 192 200 205 213 221 227 227 230 234 235 234 234
190 173 168 163 175 188 211 167 187 230 222 226 277 295 327 315 338 342 307 28 338 316 223 200 177 189 198 196 160 178 190 203 209 214 215 219 227 231 234 237 241 241 240
272 153 167 176 179 175 205 167 221 205 207 212 226 248 255 294 311 259 327 307 254 315 326 293 277 165 164 184 189 186 208 203 213 217 222 225 227 230 233 235 238 240 239
235 166 175 176 183 194 192 171 219 186 189 201 223 201 220 247 275 235 204 263 226 242 294 309 289 287 210 202 175 199 235 247 214 222 224 226 228 230 232 232 232 233 232
231 186 182 176 179 193 203 186 230 251 189 204 240 214 197 233 272 307 334 252 229 220 231 281 276 326 350 282 267 248 226 238 243 222 225 227 230 233 234 234 234 234 234
204 215 187 193 193 198 202 202 207 238 189 208 224 230 217 204 220 260 275 279 287 267 263 282 286 300 281 269 246 239 233 237 239 247 226 229 232 235 237 238 238 238 235
208 205 203 195 202 203 212 207 208 216 244 207 215 210 222 222 225 213 234 245 261 256 246 244 263 246 248 256 266 259 236 239 249 250 254 247 233 233 235 239 240 238 233
200 209 210 205 205 206 212 215 204 212 222 237 227 222 224 225 226 219 228 244 267 282 275 270 274 267 254 257 248 273 312 283 251 268 287 292 274 237 239 245 249 250 243
206 205 208 213 204 209 209 209 215 214 216 224 233 225 228 225 229 225 223 226 233 243 250 256 258 256 274 346 323 295 293 309 316 304 299 297 305 311 289 243 246 242 240
203 204 207 210 210 211 210 201 200 216 216 214 226 238 242 225 231 234 233 240 238 252 269 277 286 287 291 298 311 315 309 303 304 268 294 308 301 296 297 296 289 240 243
205 204 207 210 213 215 209 204 200 207 215 222 219 224 230 235 221 223 227 235 241 239 231 249 260 262 267 265 277 279 278 273 283 287 300 292 296 286 283 288 327 318 316
205 204 207 210 213 214 207 205 202 208 212 216 216 223 225 233 241 224 227 229 228 236 235 231 233 245 250 255 247 250 259 263 278 286 282 280 289 296 299 323 315 334 321
206 211 211 210 212 217 201 202 183 207 219 222 225 233 234 225 227 236 249 254 258 258 242 227 234 233 231 242 247 269 273 280 278 282 289 302 295 303 316 295 312 322 311
210 209 215 214 213 217 205 201 189 215 220 222 226 232 228 234 237 223 221 232 245 249 254 266 276 263 241 236 237 214 244 249 269 295 192 299 321 359 307 275 315 300 5